Find Starlink 1465

NORAD ID: 45731 Int'l Des: 2020-038 Owner: SPXS Country: US Constellation: starlink operational
LEOCIRCULAR

Live-Position

3D-Globus wird geladen...

Über Starlink 1465

Beschreibung wird geladen...

Nächste Überflüge

Passes for default location (London). Set your location on the main map for personalized predictions.

Höhenverlauf

Loading altitude history...

Zweizeiliger Elementsatz

1 45731U 20038B 26109.95160419 .00055601 00000-0 77083-3 0 9991
2 45731 53.0476 24.1684 0005336 92.4499 267.7123 15.56532208322794
Epoch: 19. Apr. 2026 • Age: 17 hours

Aktueller Status

Höhe 402.4 km
Geschwindigkeit 7.67 km/s
Subsatellitenpunkt -13.43°S, 74.03°W
Startdatum 13. Juni 2020
Alter 5.8 years
Typ internet

Technische Details

Klassifizierung Payload
Masse 260.00 kg
Trockenmasse 248.00 kg
Gesamtmasse 260.00 kg
Länge 0.20 m
Durchmesser 2.80 m
Spannweite 9.00 m
Form Box + pan
Hersteller SPXS
Bus-Typ Starlink
Phasenstatus In Orbit
Besitzer/Staat SPXS/US

Most Searched